BCS6360 EDDF-LEMD

Flight info

Callsign BCS6360
Flight time 2h 6m
Altitude 30000
Route SOBRA2L/18 SOBRA Y180 DIK UN857 TOLVU/N0440F310 DCT RAPOR DCT GIMER DCT AHVEC DCT RESMI DCT DEKOD DCT DISAK DCT ARKIP DCT ARNAV DCT LMG DCT UVELI DCT OSMOB DCT ARVID DCT PPN DCT NOLSA DCT ALEPO DCT VASUM N10 BANEV
Aircraft A306/M-SDE1FGHIRWXYZ/HB1

Departure

Time 2026-05-06 15:40
Airport Frankfurt Main Airport (EDDF)

Arrival

Time 2026-05-06 17:46
Airport Adolfo Suárez Madrid–Barajas Airport (LEMD)
Time Latitude Longitude Altitude Speed Heading
2026-05-06 15:14 50.03826 8.53491 349 ft 0 kts 340°
2026-05-06 15:28 50.03814 8.53498 358 ft 3 kts 340°
2026-05-06 15:29 50.03797 8.53508 360 ft 3 kts 340°
2026-05-06 15:29 50.03779 8.53519 360 ft 3 kts 340°
2026-05-06 15:29 50.03760 8.53527 353 ft 3 kts
2026-05-06 15:29 50.03740 8.53521 369 ft 3 kts 33°
2026-05-06 15:30 50.03725 8.53501 363 ft 3 kts 42°
2026-05-06 15:30 50.03711 8.53481 358 ft 3 kts 57°
2026-05-06 15:30 50.03703 8.53455 358 ft 3 kts 66°
2026-05-06 15:30 50.03695 8.53429 358 ft 0 kts 74°
2026-05-06 15:34 50.03698 8.53444 356 ft 3 kts 72°
2026-05-06 15:35 50.03707 8.53494 357 ft 6 kts 81°
2026-05-06 15:35 50.03688 8.53564 356 ft 8 kts 142°
2026-05-06 15:35 50.03638 8.53555 352 ft 11 kts 207°
2026-05-06 15:35 50.03607 8.53436 354 ft 11 kts 253°
2026-05-06 15:36 50.03583 8.53331 354 ft 9 kts 250°
2026-05-06 15:36 50.03562 8.53239 349 ft 10 kts 249°
2026-05-06 15:36 50.03536 8.53134 351 ft 10 kts 248°
2026-05-06 15:36 50.03514 8.53043 348 ft 8 kts 250°
2026-05-06 15:37 50.03496 8.52965 348 ft 7 kts 250°
2026-05-06 15:37 50.03479 8.52899 351 ft 6 kts 246°
2026-05-06 15:37 50.03463 8.52843 351 ft 5 kts 246°
2026-05-06 15:37 50.03448 8.52789 354 ft 5 kts 246°
2026-05-06 15:38 50.03434 8.52732 352 ft 6 kts 250°
2026-05-06 15:38 50.03419 8.52671 351 ft 7 kts 248°
2026-05-06 15:38 50.03390 8.52608 346 ft 7 kts 217°
2026-05-06 15:38 50.03353 8.52595 348 ft 4 kts 180°
2026-05-06 15:39 50.03246 8.52596 341 ft 43 kts 180°
2026-05-06 15:39 50.02731 8.52600 345 ft 105 kts 180°
2026-05-06 15:39 50.01812 8.52606 336 ft 158 kts 180°
2026-05-06 15:39 50.00551 8.52643 543 ft 195 kts 181°
2026-05-06 15:40 49.99160 8.52690 1403 ft 202 kts 182°
2026-05-06 15:40 49.97745 8.52733 2402 ft 206 kts 181°
2026-05-06 15:40 49.96243 8.52837 3093 ft 223 kts 180°
2026-05-06 15:40 49.94699 8.52956 3750 ft 226 kts 180°
2026-05-06 15:41 49.93116 8.53080 4599 ft 227 kts 180°
2026-05-06 15:41 49.91530 8.53202 5502 ft 231 kts 180°
2026-05-06 15:41 49.89877 8.53319 6270 ft 242 kts 180°
2026-05-06 15:41 49.88173 8.53420 7109 ft 244 kts 183°
2026-05-06 15:42 49.86489 8.53018 7828 ft 250 kts 198°
2026-05-06 15:42 49.84809 8.52140 8359 ft 263 kts 202°
2026-05-06 15:42 49.83062 8.51127 9046 ft 270 kts 202°
2026-05-06 15:42 49.81275 8.50094 9786 ft 275 kts 201°
2026-05-06 15:43 49.79445 8.49029 10258 ft 290 kts 204°
2026-05-06 15:43 49.77683 8.47425 10517 ft 307 kts 222°
2026-05-06 15:43 49.76390 8.44704 10764 ft 324 kts 247°
2026-05-06 15:43 49.75993 8.41193 11027 ft 342 kts 272°
2026-05-06 15:44 49.76424 8.37540 11354 ft 357 kts 283°
2026-05-06 15:44 49.77072 8.33785 11828 ft 364 kts 283°
2026-05-06 15:44 49.77731 8.29968 12399 ft 368 kts 283°
2026-05-06 15:44 49.78376 8.26137 12990 ft 372 kts 283°
2026-05-06 15:45 49.79024 8.22196 13593 ft 376 kts 283°
2026-05-06 15:45 49.79663 8.18249 14141 ft 380 kts 283°
2026-05-06 15:45 49.80305 8.14262 14675 ft 383 kts 282°
2026-05-06 15:45 49.80950 8.10232 15227 ft 387 kts 282°
2026-05-06 15:46 49.81588 8.06219 15744 ft 391 kts 282°
2026-05-06 15:46 49.82239 8.02111 16292 ft 394 kts 282°
2026-05-06 15:46 49.82893 7.97963 16803 ft 398 kts 282°
2026-05-06 15:46 49.83554 7.93767 17345 ft 402 kts 282°
2026-05-06 15:47 49.84218 7.89536 17870 ft 405 kts 282°
2026-05-06 15:47 49.84886 7.85267 18346 ft 408 kts 282°
2026-05-06 15:47 49.85550 7.81018 18806 ft 411 kts 282°
2026-05-06 15:47 49.86226 7.76682 19292 ft 413 kts 282°
2026-05-06 15:48 49.86910 7.72336 19782 ft 415 kts 282°
2026-05-06 15:48 49.87590 7.67998 20236 ft 418 kts 282°
2026-05-06 15:48 49.88276 7.63596 20691 ft 420 kts 282°
2026-05-06 15:48 49.88963 7.59160 21148 ft 422 kts 282°
2026-05-06 15:49 49.89640 7.54775 21587 ft 424 kts 282°
2026-05-06 15:49 49.90324 7.50317 22020 ft 426 kts 282°
2026-05-06 15:49 49.91013 7.45805 22466 ft 428 kts 282°
2026-05-06 15:49 49.91700 7.41294 22875 ft 430 kts 282°
2026-05-06 15:50 49.92391 7.36756 23292 ft 432 kts 282°
2026-05-06 15:50 49.93074 7.32258 23639 ft 434 kts 282°
2026-05-06 15:50 49.93769 7.27668 23947 ft 437 kts 282°
2026-05-06 15:50 49.94467 7.23051 24249 ft 439 kts 282°
2026-05-06 15:51 49.95165 7.18418 24577 ft 441 kts 282°
2026-05-06 15:51 49.95853 7.13834 24885 ft 443 kts 281°
2026-05-06 15:51 49.96557 7.09140 25196 ft 445 kts 281°
2026-05-06 15:51 49.97258 7.04441 25492 ft 447 kts 281°
2026-05-06 15:52 49.97959 6.99722 25777 ft 449 kts 281°
2026-05-06 15:52 49.98647 6.94994 26047 ft 450 kts 279°
2026-05-06 15:52 49.99079 6.90166 26317 ft 450 kts 272°
2026-05-06 15:52 49.99149 6.85284 26605 ft 451 kts 268°
2026-05-06 15:53 49.99088 6.80408 26878 ft 452 kts 266°
2026-05-06 15:53 49.98962 6.75568 27134 ft 454 kts 265°
2026-05-06 15:53 49.98804 6.70655 27385 ft 456 kts 265°
2026-05-06 15:53 49.98635 6.65731 27627 ft 458 kts 265°
2026-05-06 15:54 49.98412 6.60771 27857 ft 458 kts 261°
2026-05-06 15:54 49.97843 6.55904 28147 ft 457 kts 254°
2026-05-06 15:54 49.96874 6.51270 28483 ft 454 kts 248°
2026-05-06 15:54 49.95712 6.46707 28811 ft 453 kts 245°
2026-05-06 15:55 49.94473 6.42177 29124 ft 453 kts 244°
2026-05-06 15:55 49.93205 6.37699 29467 ft 452 kts 244°
2026-05-06 15:55 49.91941 6.33288 29755 ft 452 kts 244°
2026-05-06 15:55 49.90667 6.28850 29811 ft 445 kts 244°
2026-05-06 15:56 49.89399 6.24528 29827 ft 434 kts 243°
2026-05-06 15:56 49.88167 6.20272 29835 ft 431 kts 244°
2026-05-06 15:56 49.85514 6.11944 29842 ft 437 kts 236°
2026-05-06 15:57 49.82103 6.04091 29841 ft 439 kts 233°
2026-05-06 15:57 49.78551 5.96372 29839 ft 439 kts 232°
2026-05-06 15:58 49.75045 5.88599 29840 ft 441 kts 237°
2026-05-06 15:58 49.72526 5.79992 29845 ft 443 kts 247°
2026-05-06 15:59 49.70407 5.71040 29847 ft 444 kts 248°
2026-05-06 15:59 49.68695 5.63551 29855 ft 444 kts 248°
2026-05-06 16:00 49.66620 5.54556 29856 ft 443 kts 248°
2026-05-06 16:00 49.64538 5.45661 29855 ft 443 kts 248°
2026-05-06 16:01 49.62430 5.36692 29854 ft 444 kts 249°
2026-05-06 16:01 49.60450 5.27643 29863 ft 445 kts 250°
2026-05-06 16:02 49.58587 5.18574 29867 ft 446 kts 252°
2026-05-06 16:02 49.56946 5.09323 29865 ft 447 kts 254°
2026-05-06 16:03 49.55353 5.00059 29865 ft 447 kts 254°
2026-05-06 16:03 49.53734 4.90859 29871 ft 447 kts 253°
2026-05-06 16:04 49.52078 4.81610 29867 ft 447 kts 253°
2026-05-06 16:04 49.50415 4.72408 29871 ft 449 kts 253°
2026-05-06 16:05 49.48732 4.63140 29870 ft 450 kts 253°
2026-05-06 16:05 49.47032 4.53822 29871 ft 452 kts 253°
2026-05-06 16:06 49.45334 4.44552 29872 ft 453 kts 253°
2026-05-06 16:06 49.43612 4.35203 29875 ft 454 kts 253°
2026-05-06 16:07 49.41894 4.25926 29885 ft 454 kts 253°
2026-05-06 16:07 49.41023 4.21238 30082 ft 454 kts 253°
2026-05-06 16:07 49.40151 4.16564 30327 ft 454 kts 253°
2026-05-06 16:08 49.39279 4.11898 30579 ft 453 kts 253°
2026-05-06 16:08 49.38420 4.07306 30820 ft 453 kts 253°
2026-05-06 16:08 49.36447 3.98102 30878 ft 454 kts 244°
2026-05-06 16:09 49.33288 3.89723 30879 ft 454 kts 236°
2026-05-06 16:09 49.29822 3.81687 30888 ft 454 kts 235°
2026-05-06 16:10 49.26268 3.73639 30886 ft 455 kts 235°
2026-05-06 16:10 49.22748 3.65647 30888 ft 455 kts 235°
2026-05-06 16:11 49.19215 3.57601 30886 ft 454 kts 235°
2026-05-06 16:11 49.15691 3.49581 30892 ft 454 kts 235°
2026-05-06 16:12 49.12189 3.41640 30889 ft 453 kts 235°
2026-05-06 16:12 49.08656 3.33651 30893 ft 452 kts 235°
2026-05-06 16:13 49.05154 3.25758 30884 ft 451 kts 234°
2026-05-06 16:13 49.01624 3.17819 30897 ft 451 kts 234°
2026-05-06 16:14 48.98105 3.09934 30888 ft 451 kts 234°
2026-05-06 16:14 48.94564 3.02022 30895 ft 451 kts 234°
2026-05-06 16:15 48.91022 2.94129 30896 ft 451 kts 234°
2026-05-06 16:15 48.87477 2.86254 30897 ft 451 kts 234°
2026-05-06 16:16 48.83942 2.78428 30900 ft 451 kts 234°
2026-05-06 16:16 48.80371 2.70542 30901 ft 452 kts 234°
2026-05-06 16:17 48.76809 2.62696 30901 ft 454 kts 234°
2026-05-06 16:17 48.73228 2.54836 30905 ft 456 kts 234°
2026-05-06 16:18 48.69604 2.46904 30922 ft 457 kts 234°
2026-05-06 16:18 48.65984 2.39003 30917 ft 460 kts 234°
2026-05-06 16:19 48.62313 2.31015 30900 ft 460 kts 234°
2026-05-06 16:19 48.58274 2.23593 30905 ft 460 kts 221°
2026-05-06 16:20 48.52934 2.18369 30902 ft 458 kts 201°
2026-05-06 16:20 48.46837 2.15744 30915 ft 458 kts 192°
2026-05-06 16:21 48.40573 2.13778 30909 ft 459 kts 190°
2026-05-06 16:21 48.34334 2.11881 30902 ft 459 kts 191°
2026-05-06 16:22 48.28009 2.10531 30908 ft 458 kts 179°
2026-05-06 16:22 48.21664 2.11311 30915 ft 456 kts 172°
2026-05-06 16:23 48.15406 2.12569 30918 ft 455 kts 174°
2026-05-06 16:23 48.09066 2.12329 30919 ft 455 kts 184°
2026-05-06 16:24 48.02771 2.11239 30931 ft 455 kts 186°
2026-05-06 16:24 47.96512 2.09989 30944 ft 455 kts 187°
2026-05-06 16:25 47.90258 2.08752 30938 ft 455 kts 186°
2026-05-06 16:25 47.83974 2.07541 30939 ft 454 kts 186°
2026-05-06 16:26 47.77701 2.06351 30935 ft 454 kts 186°
2026-05-06 16:26 47.71426 2.05165 30933 ft 454 kts 186°
2026-05-06 16:27 47.65196 2.03936 30918 ft 454 kts 189°
2026-05-06 16:27 47.59143 2.01228 30916 ft 455 kts 199°
2026-05-06 16:28 47.53219 1.97861 30924 ft 456 kts 200°
2026-05-06 16:28 47.47311 1.94389 30939 ft 456 kts 201°
2026-05-06 16:29 47.41431 1.90956 30934 ft 457 kts 200°
2026-05-06 16:29 47.35496 1.87528 30938 ft 457 kts 200°
2026-05-06 16:30 47.30566 1.84695 30936 ft 457 kts 200°
2026-05-06 16:30 47.23666 1.80744 30936 ft 457 kts 200°
2026-05-06 16:31 47.17709 1.77351 30936 ft 457 kts 200°
2026-05-06 16:31 47.11763 1.73998 30935 ft 458 kts 199°
2026-05-06 16:32 47.05830 1.70666 30937 ft 458 kts 200°
2026-05-06 16:32 46.99869 1.67322 30939 ft 458 kts 200°
2026-05-06 16:33 46.93898 1.63979 30943 ft 459 kts 200°
2026-05-06 16:34 46.84978 1.58999 30940 ft 459 kts 200°
2026-05-06 16:34 46.79009 1.55678 30941 ft 459 kts 200°
2026-05-06 16:35 46.73026 1.52356 30941 ft 458 kts 200°
2026-05-06 16:35 46.67098 1.49073 30936 ft 458 kts 200°
2026-05-06 16:36 46.61136 1.45778 30930 ft 457 kts 200°
2026-05-06 16:36 46.55214 1.42514 30931 ft 456 kts 200°
2026-05-06 16:37 46.49298 1.39261 30928 ft 455 kts 200°
2026-05-06 16:37 46.43362 1.36003 30922 ft 454 kts 200°
2026-05-06 16:38 46.37451 1.32768 30924 ft 453 kts 200°
2026-05-06 16:38 46.31550 1.29546 30926 ft 452 kts 200°
2026-05-06 16:39 46.25688 1.26353 30917 ft 452 kts 200°
2026-05-06 16:39 46.19830 1.23168 30916 ft 450 kts 200°
2026-05-06 16:39 46.16931 1.21594 30902 ft 437 kts 200°
2026-05-06 16:40 46.14096 1.20057 30908 ft 433 kts 200°
2026-05-06 16:40 46.08457 1.17005 30907 ft 432 kts 200°
2026-05-06 16:41 46.02853 1.13979 30906 ft 431 kts 200°
2026-05-06 16:41 45.97219 1.10944 30907 ft 431 kts 200°
2026-05-06 16:42 45.91561 1.07901 30910 ft 441 kts 200°
2026-05-06 16:42 45.85786 1.04802 30912 ft 442 kts 200°
2026-05-06 16:43 45.80356 1.00845 30906 ft 442 kts 216°
2026-05-06 16:43 45.75514 0.95416 30905 ft 442 kts 219°
2026-05-06 16:44 45.70800 0.89733 30906 ft 443 kts 220°
2026-05-06 16:44 45.66122 0.84069 30900 ft 442 kts 220°
2026-05-06 16:45 45.61395 0.78406 30902 ft 443 kts 219°
2026-05-06 16:45 45.56681 0.72797 30906 ft 443 kts 219°
2026-05-06 16:46 45.51934 0.67172 30906 ft 443 kts 219°
2026-05-06 16:46 45.47176 0.61543 30908 ft 443 kts 219°
2026-05-06 16:47 45.42447 0.55961 30907 ft 443 kts 219°
2026-05-06 16:47 45.37682 0.50347 30910 ft 443 kts 219°
2026-05-06 16:48 45.32947 0.44783 30910 ft 443 kts 219°
2026-05-06 16:48 45.28187 0.39200 30914 ft 443 kts 219°
2026-05-06 16:49 45.23463 0.33673 30917 ft 443 kts 219°
2026-05-06 16:49 45.18751 0.28170 30921 ft 443 kts 219°
2026-05-06 16:50 45.14789 0.23555 30926 ft 443 kts 219°
2026-05-06 16:50 45.09241 0.17107 30929 ft 443 kts 219°
2026-05-06 16:51 45.05272 0.12506 30929 ft 443 kts 219°
2026-05-06 16:51 45.00496 0.06978 30934 ft 442 kts 219°
2026-05-06 16:52 44.95758 0.01505 30940 ft 442 kts 219°
2026-05-06 16:52 44.90978 -0.04004 30941 ft 442 kts 219°
2026-05-06 16:53 44.86240 -0.09451 30943 ft 441 kts 219°
2026-05-06 16:53 44.81480 -0.14912 30944 ft 441 kts 219°
2026-05-06 16:54 44.76722 -0.20359 30948 ft 440 kts 219°
2026-05-06 16:54 44.71955 -0.25803 30955 ft 440 kts 219°
2026-05-06 16:55 44.67193 -0.31231 30956 ft 440 kts 219°
2026-05-06 16:55 44.62087 -0.35888 30962 ft 440 kts 209°
2026-05-06 16:56 44.56684 -0.39966 30953 ft 440 kts 208°
2026-05-06 16:56 44.51270 -0.43907 30957 ft 440 kts 208°
2026-05-06 16:57 44.45827 -0.47865 30960 ft 439 kts 208°
2026-05-06 16:57 44.40404 -0.51822 30964 ft 438 kts 208°
2026-05-06 16:58 44.35027 -0.55748 30971 ft 438 kts 208°
2026-05-06 16:58 44.29621 -0.59690 30972 ft 437 kts 208°
2026-05-06 16:59 44.24220 -0.63618 30979 ft 437 kts 208°
2026-05-06 16:59 44.18859 -0.67507 30984 ft 436 kts 208°
2026-05-06 17:00 44.13472 -0.71409 30985 ft 436 kts 208°
2026-05-06 17:00 44.08076 -0.75309 30983 ft 436 kts 208°
2026-05-06 17:01 44.02725 -0.79167 30983 ft 435 kts 208°
2026-05-06 17:01 43.97346 -0.83037 30988 ft 434 kts 208°
2026-05-06 17:02 43.91999 -0.86877 30991 ft 434 kts 208°
2026-05-06 17:02 43.86628 -0.90727 30991 ft 433 kts 208°
2026-05-06 17:03 43.81287 -0.94548 30991 ft 433 kts 208°
2026-05-06 17:03 43.75927 -0.98374 30992 ft 433 kts 208°
2026-05-06 17:04 43.70554 -1.02203 30984 ft 433 kts 208°
2026-05-06 17:04 43.65212 -1.06000 30986 ft 433 kts 208°
2026-05-06 17:05 43.59858 -1.09797 30986 ft 433 kts 208°
2026-05-06 17:05 43.54492 -1.13598 30992 ft 433 kts 208°
2026-05-06 17:06 43.49147 -1.17375 30993 ft 433 kts 209°
2026-05-06 17:06 43.43763 -1.21172 31007 ft 433 kts 209°
2026-05-06 17:07 43.38411 -1.24938 31010 ft 433 kts 209°
2026-05-06 17:07 43.33046 -1.28707 31009 ft 433 kts 209°
2026-05-06 17:08 43.27660 -1.32484 31012 ft 433 kts 209°
2026-05-06 17:08 43.22304 -1.36231 31008 ft 433 kts 209°
2026-05-06 17:09 43.16924 -1.39987 31009 ft 434 kts 209°
2026-05-06 17:09 43.11548 -1.43732 31009 ft 433 kts 209°
2026-05-06 17:10 43.06164 -1.47479 31004 ft 434 kts 209°
2026-05-06 17:10 43.00809 -1.51207 30999 ft 434 kts 209°
2026-05-06 17:11 42.95404 -1.54963 30989 ft 434 kts 210°
2026-05-06 17:11 42.90022 -1.58698 30989 ft 434 kts 210°
2026-05-06 17:12 42.84647 -1.62420 30995 ft 434 kts 210°
2026-05-06 17:12 42.79266 -1.66137 30992 ft 434 kts 210°
2026-05-06 17:13 42.73875 -1.69855 30988 ft 434 kts 210°
2026-05-06 17:13 42.68458 -1.73533 30986 ft 434 kts 209°
2026-05-06 17:14 42.63059 -1.77159 30984 ft 434 kts 209°
2026-05-06 17:14 42.57619 -1.80804 30980 ft 434 kts 209°
2026-05-06 17:15 42.52205 -1.84430 30975 ft 434 kts 210°
2026-05-06 17:15 42.46788 -1.88051 30969 ft 434 kts 210°
2026-05-06 17:16 42.41372 -1.91667 30967 ft 433 kts 210°
2026-05-06 17:16 42.35965 -1.95269 30965 ft 433 kts 210°
2026-05-06 17:17 42.30573 -1.98859 30966 ft 433 kts 210°
2026-05-06 17:17 42.25164 -2.02456 30966 ft 432 kts 210°
2026-05-06 17:18 42.19781 -2.06015 30969 ft 432 kts 210°
2026-05-06 17:18 42.14382 -2.09577 30967 ft 432 kts 210°
2026-05-06 17:19 42.08983 -2.13138 30968 ft 432 kts 210°
2026-05-06 17:19 42.03573 -2.16701 30963 ft 431 kts 210°
2026-05-06 17:20 41.98192 -2.20237 30960 ft 432 kts 210°
2026-05-06 17:20 41.92776 -2.23790 30956 ft 431 kts 210°
2026-05-06 17:21 41.87394 -2.27314 30950 ft 431 kts 210°
2026-05-06 17:21 41.82015 -2.30829 30949 ft 431 kts 210°
2026-05-06 17:22 41.76610 -2.34355 30949 ft 431 kts 210°
2026-05-06 17:22 41.71224 -2.37862 30934 ft 431 kts 210°
2026-05-06 17:23 41.65840 -2.41361 30934 ft 431 kts 210°
2026-05-06 17:23 41.60426 -2.44873 30932 ft 431 kts 210°
2026-05-06 17:24 41.55090 -2.48324 30751 ft 418 kts 210°
2026-05-06 17:24 41.52484 -2.50008 30190 ft 416 kts 211°
2026-05-06 17:24 41.49886 -2.51687 29502 ft 415 kts 210°
2026-05-06 17:24 41.47298 -2.53358 29016 ft 409 kts 210°
2026-05-06 17:25 41.44726 -2.55016 28426 ft 406 kts 210°
2026-05-06 17:25 41.42225 -2.56627 27954 ft 401 kts 210°
2026-05-06 17:25 41.39711 -2.58244 27485 ft 396 kts 210°
2026-05-06 17:25 41.37222 -2.59845 27018 ft 393 kts 210°
2026-05-06 17:26 41.34797 -2.61392 26551 ft 390 kts 208°
2026-05-06 17:26 41.32195 -2.62551 26065 ft 394 kts 194°
2026-05-06 17:26 41.29464 -2.62761 25620 ft 397 kts 182°
2026-05-06 17:26 41.26688 -2.62549 25167 ft 397 kts 180°
2026-05-06 17:27 41.23981 -2.62282 24950 ft 388 kts 180°
2026-05-06 17:27 41.21311 -2.62018 24915 ft 377 kts 180°
2026-05-06 17:27 41.18692 -2.61771 24918 ft 376 kts 180°
2026-05-06 17:27 41.16094 -2.61534 24590 ft 378 kts 181°
2026-05-06 17:28 41.13444 -2.61551 23762 ft 385 kts 189°
2026-05-06 17:28 41.10821 -2.62287 22778 ft 390 kts 202°
2026-05-06 17:28 41.08270 -2.63650 22002 ft 391 kts 207°
2026-05-06 17:28 41.05799 -2.65126 21285 ft 393 kts 207°
2026-05-06 17:29 41.03309 -2.66645 20705 ft 391 kts 207°
2026-05-06 17:29 41.00844 -2.68152 20145 ft 389 kts 207°
2026-05-06 17:29 40.98422 -2.69636 19596 ft 387 kts 207°
2026-05-06 17:29 40.95975 -2.71133 19069 ft 385 kts 207°
2026-05-06 17:30 40.93547 -2.72619 18572 ft 382 kts 207°
2026-05-06 17:30 40.91135 -2.74092 18074 ft 379 kts 207°
2026-05-06 17:30 40.88777 -2.75535 17537 ft 376 kts 207°
2026-05-06 17:30 40.86408 -2.76985 16968 ft 373 kts 206°
2026-05-06 17:31 40.84068 -2.78414 16494 ft 368 kts 206°
2026-05-06 17:31 40.81750 -2.79827 16015 ft 364 kts 206°
2026-05-06 17:31 40.79458 -2.81224 15568 ft 360 kts 205°
2026-05-06 17:31 40.77186 -2.82606 15118 ft 357 kts 205°
2026-05-06 17:32 40.74958 -2.83963 14672 ft 353 kts 205°
2026-05-06 17:32 40.73476 -2.84864 14386 ft 351 kts 205°
2026-05-06 17:32 40.71269 -2.86206 13936 ft 348 kts 205°
2026-05-06 17:32 40.68362 -2.87972 13347 ft 344 kts 204°
2026-05-06 17:33 40.66192 -2.89287 12837 ft 341 kts 204°
2026-05-06 17:33 40.64768 -2.90150 12542 ft 339 kts 204°
2026-05-06 17:33 40.62628 -2.91446 12074 ft 336 kts 204°
2026-05-06 17:33 40.60507 -2.92730 11610 ft 334 kts 204°
2026-05-06 17:34 40.58419 -2.93993 11303 ft 326 kts 204°
2026-05-06 17:34 40.56384 -2.95224 11045 ft 318 kts 204°
2026-05-06 17:34 40.54392 -2.96429 10789 ft 310 kts 204°
2026-05-06 17:34 40.52471 -2.97590 10538 ft 303 kts 204°
2026-05-06 17:35 40.50571 -2.98736 10288 ft 297 kts 204°
2026-05-06 17:35 40.48712 -2.99856 10048 ft 290 kts 204°
2026-05-06 17:35 40.46890 -3.00955 9769 ft 286 kts 204°
2026-05-06 17:36 40.43297 -3.03119 9023 ft 283 kts 204°
2026-05-06 17:36 40.41504 -3.04197 8639 ft 282 kts 204°
2026-05-06 17:36 40.39717 -3.05270 8273 ft 281 kts 204°
2026-05-06 17:36 40.37958 -3.06327 8084 ft 273 kts 204°
2026-05-06 17:37 40.36284 -3.07332 7940 ft 264 kts 204°
2026-05-06 17:37 40.34624 -3.08330 7698 ft 259 kts 204°
2026-05-06 17:37 40.32991 -3.09310 7429 ft 255 kts 204°
2026-05-06 17:37 40.31394 -3.10268 7246 ft 248 kts 204°
2026-05-06 17:38 40.29850 -3.11194 7007 ft 244 kts 204°
2026-05-06 17:38 40.28342 -3.12205 6872 ft 242 kts 214°
2026-05-06 17:38 40.27063 -3.13639 6735 ft 242 kts 232°
2026-05-06 17:38 40.26359 -3.15610 6614 ft 240 kts 261°
2026-05-06 17:39 40.26381 -3.17762 6497 ft 240 kts 277°
2026-05-06 17:39 40.26637 -3.19933 6387 ft 241 kts 279°
2026-05-06 17:39 40.26927 -3.22098 6278 ft 242 kts 280°
2026-05-06 17:39 40.27221 -3.24276 6137 ft 242 kts 280°
2026-05-06 17:40 40.27510 -3.26439 6040 ft 236 kts 280°
2026-05-06 17:40 40.27783 -3.28492 6010 ft 223 kts 280°
2026-05-06 17:40 40.28043 -3.30462 6003 ft 221 kts 279°
2026-05-06 17:40 40.28341 -3.32426 5988 ft 217 kts 285°
2026-05-06 17:41 40.28816 -3.34280 5986 ft 212 kts 291°
2026-05-06 17:41 40.29350 -3.36082 5919 ft 214 kts 291°
2026-05-06 17:41 40.29886 -3.37916 5694 ft 220 kts 294°
2026-05-06 17:41 40.30768 -3.39547 5617 ft 218 kts 316°
2026-05-06 17:42 40.31940 -3.40785 5536 ft 210 kts 323°
2026-05-06 17:42 40.33080 -3.41933 5296 ft 207 kts 322°
2026-05-06 17:42 40.34203 -3.43107 5043 ft 204 kts 322°
2026-05-06 17:42 40.35313 -3.44234 4772 ft 202 kts 323°
2026-05-06 17:43 40.36426 -3.45341 4518 ft 200 kts 323°
2026-05-06 17:43 40.37530 -3.46475 4183 ft 202 kts 322°
2026-05-06 17:43 40.38621 -3.47604 3917 ft 196 kts 323°
2026-05-06 17:43 40.39683 -3.48659 3662 ft 185 kts 323°
2026-05-06 17:44 40.40677 -3.49660 3435 ft 174 kts 322°
2026-05-06 17:44 40.41567 -3.50578 3239 ft 156 kts 322°
2026-05-06 17:44 40.42396 -3.51426 2915 ft 146 kts 323°
2026-05-06 17:44 40.43209 -3.52234 2710 ft 147 kts 323°
2026-05-06 17:45 40.44023 -3.53074 2558 ft 149 kts 321°
2026-05-06 17:45 40.44840 -3.53927 2368 ft 151 kts 323°
2026-05-06 17:45 40.45680 -3.54749 2141 ft 149 kts 323°
2026-05-06 17:45 40.46489 -3.55570 1963 ft 143 kts 322°
2026-05-06 17:46 40.47195 -3.56288 1988 ft 106 kts 322°
2026-05-06 17:46 40.47641 -3.56739 2003 ft 58 kts 322°
2026-05-06 17:46 40.47917 -3.57019 2003 ft 41 kts 322°
2026-05-06 17:46 40.48009 -3.57126 2008 ft 11 kts 300°
2026-05-06 17:47 40.48006 -3.57192 2009 ft 5 kts 238°
2026-05-06 17:47 40.47987 -3.57222 2007 ft 4 kts 230°
2026-05-06 17:47 40.47970 -3.57249 2009 ft 4 kts 230°
2026-05-06 17:47 40.47954 -3.57274 2008 ft 3 kts 230°
2026-05-06 17:48 40.47933 -3.57286 2009 ft 5 kts 181°
2026-05-06 17:48 40.47872 -3.57240 2005 ft 15 kts 146°
2026-05-06 17:48 40.47765 -3.57134 2002 ft 21 kts 142°
2026-05-06 17:48 40.47649 -3.57015 2000 ft 21 kts 142°
2026-05-06 17:49 40.47529 -3.56894 1998 ft 22 kts 142°
2026-05-06 17:49 40.47409 -3.56773 1996 ft 22 kts 142°
2026-05-06 17:49 40.47290 -3.56651 1991 ft 22 kts 142°
2026-05-06 17:49 40.47165 -3.56526 1988 ft 23 kts 146°
2026-05-06 17:50 40.47018 -3.56455 1986 ft 22 kts 172°
2026-05-06 17:50 40.46864 -3.56459 1981 ft 22 kts 183°
2026-05-06 17:50 40.46717 -3.56470 1981 ft 20 kts 183°
2026-05-06 17:50 40.46579 -3.56481 1981 ft 19 kts 183°
2026-05-06 17:51 40.46451 -3.56491 1978 ft 18 kts 184°
2026-05-06 17:51 40.46328 -3.56500 1977 ft 17 kts 183°
2026-05-06 17:51 40.46214 -3.56509 1980 ft 16 kts 183°
2026-05-06 17:51 40.46109 -3.56518 1981 ft 15 kts 184°
2026-05-06 17:52 40.46013 -3.56526 1977 ft 13 kts 183°
2026-05-06 17:52 40.45930 -3.56533 1977 ft 11 kts 183°
2026-05-06 17:52 40.45858 -3.56540 1981 ft 9 kts 186°
2026-05-06 17:52 40.45815 -3.56580 1981 ft 6 kts 237°
2026-05-06 17:53 40.45807 -3.56627 1979 ft 5 kts 270°
2026-05-06 17:53 40.45808 -3.56669 1978 ft 4 kts 271°